Location: Kawakawa
(35.3830°S, 174.0670°E)
Time: 10:54:09
(UTC+13:00)

H-2A R/B - Pass Details

Date: 24 January 2019
Orbit: 259 x 32960 km, 27.9° (Epoch: 19 February)

Event Time Altitude Azimuth Distance (km) Brightness Sun altitude
Rises 22:05:17 0° 308° (NW) 2,232 4.6 -16.1°
Reaches altitude 10° 22:06:38 10° 320° (NW) 1,682 3.8 -16.3°
Maximum altitude 22:09:42 34° 29° (NNE) 1,427 2.9 -16.8°
Drops below altitude 10° 22:20:58 10° 88° (E) 6,216 6.2 -18.5°
Sets 22:33:58 0° 93° (E) 11,228 7.6 -20.4°
